EW4075 Weather Reports


Display with metric or nautical units.
time (UTC)temp
F
wind
direction
speed
MPH
gust
MPH
rain 1hr
in
rain 24hr
in
rain mn
in
humidity
%
barometer
mb
20260506181559 62 24 0.0 4.0 0.00 0.09 0.09 91 1009.0
20260506180101 62 257 0.0 3.0 0.00 0.09 0.09 90 1009.0
20260506174607 62 26 0.0 5.0 0.00 0.09 0.09 90 1009.1
20260506173127 62 59 1.0 4.0 0.00 0.09 0.09 90 1009.1
20260506171600 62 76 0.0 4.0 0.00 0.09 0.09 91 1009.1
20260506170057 62 78 1.0 5.0 0.01 0.09 0.09 91 1009.2
20260506164557 62 85 1.0 6.0 0.03 0.09 0.09 92 1009.2
20260506163056 62 84 1.0 4.0 0.04 0.09 0.09 93 1009.2
20260506161608 61 107 0.0 4.0 0.04 0.09 0.09 92 1009.2
20260506160054 61 96 1.0 4.0 0.04 0.08 0.08 92 1010.1
20260506154551 61 86 0.0 3.0 0.03 0.06 0.06 91 1010.5
20260506153050 62 45 0.0 2.0 0.03 0.05 0.05 89 1010.6
20260506151547 62 85 0.0 2.0 0.05 0.05 0.05 88 1010.4
20260506150055 63 84 1.0 2.0 0.04 0.04 0.04 87 1010.4
20260506144559 63 95 0.0 2.0 0.03 0.03 0.03 86 1010.5
20260506143050 64 39 0.0 2.0 0.02 0.02 0.02 83 1010.3
20260506141537 65 355 0.0 4.0 0.00 0.00 0.00 80 1010.5
20260506140053 65 321 0.0 5.0 0.00 0.00 0.00 78 1010.3
20260506134536 66 59 0.0 4.0 0.00 0.00 0.00 77 1010.2
20260506133034 66 45 0.0 3.0 0.00 0.00 0.00 77 1010.2
20260506131541 66 65 0.0 4.0 0.00 0.00 0.00 76 1010.5
20260506130030 66 109 1.0 4.0 0.00 0.00 0.00 74 1010.4
20260506124529 67 63 1.0 6.0 0.00 0.00 0.00 72 1010.6
20260506123037 66 303 1.0 8.0 0.00 0.00 0.00 73 1010.2
20260506121529 66 129 2.0 11.0 0.00 0.00 0.00 72 1010.2
20260506120032 66 19 0.0 4.0 0.00 0.00 0.00 73 1010.0
20260506114527 66 184 2.0 7.0 0.00 0.00 0.00 73 1009.9
20260506113033 66 47 1.0 4.0 0.00 0.00 0.00 73 1009.9
20260506111526 66 88 1.0 8.0 0.00 0.00 0.00 73 1009.8
20260506110037 66 313 1.0 4.0 0.00 0.00 0.00 72 1009.8
20260506104527 66 25 1.0 9.0 0.00 0.00 0.00 72 1009.7
20260506103025 66 79 1.0 5.0 0.00 0.00 0.00 71 1009.7
20260506101522 66 78 1.0 5.0 0.00 0.00 0.00 71 1009.5
20260506100022 66 157 1.0 4.0 0.00 0.00 0.00 71 1009.5
20260506094521 66 89 0.0 6.0 0.00 0.00 0.00 71 1009.7
20260506093029 67 122 1.0 3.0 0.00 0.00 0.00 71 1009.7
20260506091519 67 55 1.0 5.0 0.00 0.00 0.00 70 1009.5
20260506090016 67 251 0.0 9.0 0.00 0.00 0.00 70 1009.7
20260506084516 67 71 0.0 6.0 0.00 0.00 0.00 71 1009.7
20260506083017 67 15 0.0 3.0 0.00 0.00 0.00 71 1009.7
20260506081515 67 119 1.0 6.0 0.00 0.00 0.00 70 1009.8
20260506073010 67 284 1.0 3.0 0.00 0.00 0.00 68 1009.9
20260506071507 68 114 1.0 4.0 0.00 0.00 0.00 68 1010.0
20260506061503 68 74 0.0 3.0 0.00 0.00 0.00 65 1010.3
20260506044555 68 68 0.0 4.0 0.00 0.00 0.00 61 1011.0
20260506043056 68 52 0.0 2.0 0.00 0.00 0.00 61 1011.0
20260506041551 69 74 0.0 3.0 0.00 0.00 0.00 60 1011.1
20260506040047 69 53 0.0 3.0 0.00 0.00 0.00 58 1010.9
20260506034604 70 69 1.0 3.0 0.00 0.00 0.00 57 1010.8
20260506033043 70 83 0.0 4.0 0.00 0.00 0.00 56 1010.8
20260506031549 71 70 0.0 4.0 0.00 0.00 0.00 54 1010.8
20260506030038 71 86 1.0 3.0 0.00 0.00 0.00 53 1010.7
20260506024541 72 71 0.0 4.0 0.00 0.00 0.00 52 1010.8
20260506023035 72 82 0.0 3.0 0.00 0.00 0.00 50 1010.9
20260506021531 73 133 0.0 3.0 0.00 0.00 0.00 49 1010.8
20260506020033 73 113 1.0 6.0 0.00 0.00 0.00 47 1010.7
20260506014526 74 68 0.0 3.0 0.00 0.00 0.00 46 1010.6
20260506013024 74 109 1.0 5.0 0.00 0.00 0.00 45 1010.4
20260506011521 75 86 1.0 4.0 0.00 0.00 0.00 44 1010.2
20260506010045 75 76 1.0 6.0 0.00 0.00 0.00 43 1010.1
20260506004521 76 266 0.0 3.0 0.00 0.00 0.00 42 1010.0
20260506003015 76 93 1.0 3.0 0.00 0.00 0.00 42 1009.9
20260506001513 77 65 0.0 3.0 0.00 0.00 0.00 39 1009.6
20260506000014 77 84 0.0 7.0 0.00 0.00 0.00 39 1009.5
20260505234510 78 98 0.0 4.0 0.00 0.00 0.00 38 1009.3
20260505233008 78 99 0.0 8.0 0.00 0.00 0.00 38 1009.2
20260505231509 79 63 1.0 5.0 0.00 0.00 0.00 37 1009.3
20260505230003 79 76 1.0 7.0 0.00 0.00 0.00 37 1009.1
20260505224601 80 31 1.0 8.0 0.00 0.00 0.00 36 1009.1
20260505223057 81 42 1.0 6.0 0.00 0.00 0.00 35 1009.1
20260505221552 82 66 1.0 5.0 0.00 0.00 0.00 34 1009.1
20260505220048 83 103 1.0 6.0 0.00 0.00 0.00 32 1009.0
20260505214546 83 82 0.0 5.0 0.00 0.00 0.00 34 1008.8